• In Germany
  • List of Countries
  • For 7 days
  • Water Temperature
  • Satellite Maps
  • Weather Map
  • Weather Widgets
  • user-avatar
    Login

    Hourly Weather Tibissa

    Today, 25 April, Tuesday

    Time Temperature Precipitation Wind Pressure Humidity
    00:00 +13°C° 0 mm 2 mps 683 mmHg 46%
    01:00 +12°C° 0 mm 2 mps 683 mmHg 47%
    02:00 +12°C° 0 mm 2 mps 683 mmHg 46%
    03:00 +12°C° 0 mm 1 mps 683 mmHg 46%
    04:00 +11°C° 0 mm 1 mps 682 mmHg 45%
    05:00 +12°C° 0 mm 1 mps 682 mmHg 42%
    06:00 +13°C° 0 mm 1 mps 683 mmHg 40%
    07:00 +15°C° 0 mm 1 mps 683 mmHg 31%
    08:00 +17°C° 0 mm 2 mps 684 mmHg 28%
    09:00 +19°C° 0 mm 2 mps 684 mmHg 24%
    10:00 +21°C° 0 mm 2 mps 684 mmHg 21%
    11:00 +24°C° 0 mm 2 mps 684 mmHg 20%
    12:00 +25°C° 0 mm 2 mps 684 mmHg 20%
    13:00 +26°C° 0 mm 2 mps 684 mmHg 19%
    14:00 +26°C° 0 mm 3 mps 684 mmHg 20%
    15:00 +26°C° 0 mm 3 mps 683 mmHg 20%
    16:00 +26°C° 0 mm 3 mps 683 mmHg 21%
    17:00 +24°C° 0 mm 3 mps 682 mmHg 28%
    18:00 +22°C° 0 mm 4 mps 682 mmHg 34%
    19:00 +20°C° 0 mm 4 mps 682 mmHg 41%
    20:00 +19°C° 0 mm 4 mps 682 mmHg 48%
    21:00 +17°C° 0 mm 4 mps 682 mmHg 55%
    22:00 +16°C° 0 mm 3 mps 682 mmHg 63%
    23:00 +14°C° 0 mm 3 mps 682 mmHg 65%

    Tomorrow, 26 April, Wednesday

    Time Temperature Precipitation Wind Pressure Humidity
    00:00 +15°C° 0 mm 2 mps 682 mmHg 68%
    01:00 +14°C° 0 mm 2 mps 682 mmHg 71%
    02:00 +14°C° 0 mm 2 mps 681 mmHg 68%
    03:00 +14°C° 0 mm 1 mps 681 mmHg 66%
    04:00 +13°C° 0 mm 1 mps 681 mmHg 64%
    05:00 +14°C° 0 mm 1 mps 681 mmHg 59%
    06:00 +15°C° 0 mm 1 mps 681 mmHg 54%
    07:00 +16°C° 0 mm 1 mps 682 mmHg 50%
    08:00 +20°C° 0 mm 1 mps 682 mmHg 41%
    09:00 +23°C° 0 mm 2 mps 683 mmHg 33%
    10:00 +25°C° 0 mm 2 mps 684 mmHg 25%
    11:00 +26°C° 0 mm 2 mps 684 mmHg 23%
    12:00 +27°C° 0 mm 3 mps 684 mmHg 21%
    13:00 +28°C° 0 mm 3 mps 684 mmHg 19%
    14:00 +28°C° 0 mm 3 mps 683 mmHg 20%
    15:00 +28°C° 0 mm 4 mps 683 mmHg 20%
    16:00 +28°C° 0 mm 4 mps 683 mmHg 21%
    17:00 +26°C° 0 mm 4 mps 683 mmHg 26%
    18:00 +25°C° 0 mm 3 mps 682 mmHg 31%
    19:00 +22°C° 0 mm 3 mps 682 mmHg 36%
    20:00 +21°C° 0.1 mm 3 mps 682 mmHg 40%
    21:00 +20°C° 0.1 mm 2 mps 683 mmHg 44%
    22:00 +18°C° 0.1 mm 2 mps 683 mmHg 48%
    23:00 +18°C° 0 mm 2 mps 683 mmHg 49%

    Day after tomorrow, 27 April, Thursday

    Time Temperature Precipitation Wind Pressure Humidity
    00:00 +18°C° 0 mm 2 mps 683 mmHg 50%
    01:00 +17°C° 0 mm 2 mps 683 mmHg 51%
    02:00 +17°C° 0.1 mm 2 mps 682 mmHg 51%
    03:00 +17°C° 0.1 mm 2 mps 682 mmHg 51%
    04:00 +17°C° 0.1 mm 2 mps 682 mmHg 52%
    05:00 +17°C° 0 mm 2 mps 682 mmHg 50%
    06:00 +18°C° 0 mm 2 mps 682 mmHg 49%
    07:00 +18°C° 0 mm 2 mps 682 mmHg 48%
    08:00 +21°C° 0 mm 4 mps 682 mmHg 41%
    09:00 +23°C° 0 mm 5 mps 683 mmHg 34%
    10:00 +26°C° 0 mm 7 mps 683 mmHg 28%
    11:00 +27°C° 0 mm 7 mps 683 mmHg 25%
    12:00 +28°C° 0 mm 8 mps 683 mmHg 23%
    13:00 +29°C° 0 mm 9 mps 683 mmHg 21%
    14:00 +29°C° 0 mm 9 mps 683 mmHg 21%
    15:00 +29°C° 0 mm 9 mps 683 mmHg 21%
    16:00 +29°C° 0 mm 8 mps 682 mmHg 21%
    17:00 +27°C° 0 mm 7 mps 682 mmHg 26%
    18:00 +26°C° 0 mm 6 mps 682 mmHg 30%
    19:00 +23°C° 0 mm 4 mps 681 mmHg 35%
    20:00 +22°C° 0 mm 4 mps 682 mmHg 37%
    21:00 +21°C° 0 mm 4 mps 682 mmHg 39%
    22:00 +20°C° 0 mm 5 mps 682 mmHg 40%
    23:00 +19°C° 0 mm 4 mps 682 mmHg 46%

    28 April, Friday

    Time Temperature Precipitation Wind Pressure Humidity
    00:00 +18°C° 0 mm 3 mps 681 mmHg 51%
    01:00 +17°C° 0 mm 3 mps 681 mmHg 56%
    02:00 +16°C° 0 mm 3 mps 681 mmHg 60%
    03:00 +16°C° 0 mm 2 mps 681 mmHg 64%
    04:00 +15°C° 0 mm 2 mps 681 mmHg 69%
    05:00 +15°C° 0 mm 2 mps 681 mmHg 69%
    06:00 +15°C° 0 mm 2 mps 681 mmHg 69%
    07:00 +15°C° 0 mm 2 mps 681 mmHg 70%
    08:00 +18°C° 0 mm 2 mps 682 mmHg 59%
    09:00 +20°C° 0 mm 3 mps 682 mmHg 48%
    10:00 +24°C° 0 mm 3 mps 683 mmHg 37%
    11:00 +25°C° 0 mm 4 mps 683 mmHg 33%
    12:00 +27°C° 0 mm 4 mps 683 mmHg 28%
    13:00 +29°C° 0 mm 5 mps 683 mmHg 23%
    14:00 +29°C° 0 mm 5 mps 683 mmHg 25%
    15:00 +28°C° 0 mm 5 mps 682 mmHg 26%
    16:00 +28°C° 0 mm 5 mps 682 mmHg 28%
    17:00 +25°C° 0 mm 5 mps 682 mmHg 38%
    18:00 +21°C° 0 mm 5 mps 682 mmHg 49%
    19:00 +19°C° 0 mm 5 mps 682 mmHg 59%
    20:00 +16°C° 0 mm 5 mps 682 mmHg 67%
    21:00 +15°C° 0 mm 4 mps 683 mmHg 74%
    22:00 +14°C° 0 mm 4 mps 683 mmHg 81%
    23:00 +13°C° 0 mm 4 mps 683 mmHg 82%

    29 April, Saturday

    Time Temperature Precipitation Wind Pressure Humidity
    00:00 +12°C° 0 mm 4 mps 682 mmHg 82%
    01:00 +12°C° 0 mm 3 mps 682 mmHg 83%
    02:00 +12°C° 0 mm 3 mps 682 mmHg 83%
    03:00 +12°C° 0 mm 2 mps 682 mmHg 83%
    04:00 +12°C° 0 mm 2 mps 681 mmHg 83%
    05:00 +13°C° 0 mm 1 mps 682 mmHg 81%
    06:00 +13°C° 0 mm 1 mps 682 mmHg 79%
    07:00 +13°C° 0 mm 1 mps 682 mmHg 76%
    08:00 +15°C° 0.1 mm 1 mps 682 mmHg 68%
    09:00 +19°C° 0.1 mm 1 mps 683 mmHg 59%
    10:00 +20°C° 0.1 mm 2 mps 684 mmHg 51%
    11:00 +21°C° 0.3 mm 2 mps 684 mmHg 47%
    12:00 +24°C° 0.3 mm 3 mps 683 mmHg 43%
    13:00 +25°C° 0.3 mm 4 mps 683 mmHg 39%
    14:00 +25°C° 0.9 mm 4 mps 683 mmHg 39%
    15:00 +25°C° 0.9 mm 4 mps 683 mmHg 40%
    16:00 +25°C° 0.9 mm 5 mps 682 mmHg 40%
    17:00 +22°C° 0.8 mm 4 mps 683 mmHg 47%
    18:00 +20°C° 0.8 mm 4 mps 683 mmHg 55%
    19:00 +19°C° 0.8 mm 3 mps 683 mmHg 63%
    20:00 +18°C° 0.4 mm 3 mps 683 mmHg 68%
    21:00 +17°C° 0.4 mm 2 mps 683 mmHg 74%
    22:00 +16°C° 0.4 mm 2 mps 683 mmHg 80%
    23:00 +15°C° 0 mm 2 mps 683 mmHg 82%

    30 April, Sunday

    Time Temperature Precipitation Wind Pressure Humidity
    00:00 +14°C° 0 mm 1 mps 683 mmHg 84%
    01:00 +14°C° 0 mm 1 mps 682 mmHg 86%
    02:00 +14°C° 0 mm 1 mps 682 mmHg 86%
    03:00 +13°C° 0 mm 1 mps 682 mmHg 85%
    04:00 +13°C° 0 mm 1 mps 683 mmHg 85%
    05:00 +14°C° 0 mm 1 mps 683 mmHg 80%
    06:00 +15°C° 0 mm 1 mps 683 mmHg 75%
    07:00 +16°C° 0 mm 1 mps 684 mmHg 70%
    08:00 +19°C° 0 mm 1 mps 684 mmHg 61%
    09:00 +20°C° 0 mm 2 mps 685 mmHg 51%
    10:00 +23°C° 0 mm 2 mps 685 mmHg 42%
    11:00 +25°C° 0 mm 3 mps 685 mmHg 36%
    12:00 +26°C° 0 mm 3 mps 685 mmHg 31%
    13:00 +28°C° 0 mm 4 mps 685 mmHg 26%
    14:00 +28°C° 0 mm 4 mps 684 mmHg 25%
    15:00 +28°C° 0 mm 4 mps 684 mmHg 25%
    16:00 +28°C° 0 mm 4 mps 684 mmHg 25%
    17:00 +26°C° 0 mm 3 mps 684 mmHg 32%
    18:00 +24°C° 0 mm 3 mps 684 mmHg 38%
    19:00 +22°C° 0 mm 3 mps 683 mmHg 45%
    20:00 +20°C° 0.1 mm 2 mps 684 mmHg 50%
    21:00 +19°C° 0.1 mm 2 mps 684 mmHg 56%
    22:00 +18°C° 0.1 mm 2 mps 684 mmHg 61%
    23:00 +17°C° 0 mm 2 mps 684 mmHg 65%
    Show more